Content
SEND FEEDBACK

Daily
Averages
Monthly
Summary
United States of America

PONCHA SPRINGS, COLORADO


Home > North America > United States > Colorado
Elevation: 7201 feet     Latitude: 38 32N     Longitude: 106 00W

WEATHER
 
SELECT A DAY
Number of Records: 84,901;   Date Range: 10/4/10 - 8/20/14
 
SHARE

PRINT THIS DATA

[ ← Previous Day ]
WEATHER ALMANAC - FEBRUARY 13, 2013
[ Next Day → ]
[ °C ]   °F
Weather ElementAverageHighLow
Temperature28.6 °F42.4 °F (3:15 pm)15.4 °F (4:15 am)
Dewpoint9.6 °F13.8 °F (6:55 pm)5 °F (4:55 am)
Humidity46.4 %65 % (4:15 am)30 % (2:55 pm)
Barometer30.11 in30.15 in (1:55 am)30.04 in (2:35 pm)
Wind Speed9.8 mph19.6 mph (2:15 pm)
Wind Gust27.6 mph (4:35 pm)
Weather ElementAverage
Visibility10 mi
Wind DirectionWNW (279.4 °)

Weather ElementTotal
Precipitation---
Heating Degree Days36.1 (Base 65)
Averaged from 71 records on February 13, 2013
WEATHER CONDITIONS BREAKOUT
WIND DIRECTION BREAKOUT
WEATHER BY HOUR - FEBRUARY 13, 2013
[ °C ]   °F
Local TimeTemperatureDewpointHumidityBarometerVisibilityWind DirectionWind SpeedGust SpeedPrecipitationEventsConditions
12:35 AM22.6 °F5.7 °F48 %30.13 in10.0 miNW (320°)15.0 mphClear
12:55 AM22.3 °F5.5 °F49 %30.13 in10.0 miNW (320°)10.4 mphClear
1:15 AM20.7 °F5.9 °F53 %30.13 in10.0 miWNW (290°)9.2 mphClear
1:35 AM23.0 °F6.1 °F48 %30.14 in10.0 miWest (270°)9.2 mph16.1 mphClear
1:55 AM19.9 °F5.9 °F55 %30.15 in10.0 miNW (320°)11.5 mphClear
2:15 AM18.9 °F6.3 °F58 %30.15 in10.0 miWSW (240°)6.9 mphClear
2:35 AM19.6 °F5.9 °F55 %30.15 in10.0 miWest (260°)9.2 mphClear
2:55 AM19.8 °F6.1 °F55 %30.13 in10.0 miWest (260°)9.2 mphClear
3:15 AM18.0 °F5.5 °F58 %30.13 in10.0 miWNW (300°)6.9 mphScattered Clouds
3:35 AM17.6 °F5.9 °F60 %30.12 in10.0 miWest (280°)5.8 mphScattered Clouds
3:55 AM18.3 °F5.7 °F58 %30.11 in10.0 miNNW (330°)4.6 mphClear
4:15 AM15.4 °F5.5 °F65 %30.11 in10.0 miWNW (300°)8.1 mphClear
4:35 AM17.6 °F5.7 °F60 %30.12 in10.0 miWNW (290°)5.8 mphClear
4:55 AM15.6 °F5.0 °F63 %30.11 in10.0 miWest (280°)8.1 mphClear
5:15 AM16.5 °F5.2 °F61 %30.12 in10.0 miWNW (300°)6.9 mphClear
5:35 AM17.4 °F5.2 °F59 %30.12 in10.0 miNNW (330°)9.2 mphClear
5:55 AM18.3 °F5.5 °F57 %30.12 in10.0 miNW (320°)8.1 mphClear
6:15 AM18.0 °F5.5 °F58 %30.13 in10.0 miWNW (300°)6.9 mphClear
6:35 AM17.4 °F5.4 °F59 %30.13 in10.0 miWNW (300°)10.4 mphClear
6:55 AM19.4 °F5.5 °F55 %30.13 in10.0 miNW (320°)8.1 mphClear
7:15 AM18.7 °F5.7 °F57 %30.14 in10.0 miWNW (290°)12.7 mph17.3 mphClear
7:35 AM21.0 °F6.3 °F53 %30.13 in10.0 miWest (270°)8.1 mphClear
7:55 AM23.2 °F6.6 °F49 %30.13 in10.0 miWNW (300°)11.5 mphClear
8:15 AM21.6 °F6.6 °F53 %30.12 in10.0 miNNW (330°)10.4 mphClear
8:35 AM23.2 °F7.7 °F52 %30.13 in10.0 miNW (320°)9.2 mphClear
8:55 AM24.6 °F8.1 °F49 %30.13 in10.0 miNNW (340°)9.2 mph12.7 mphClear
9:15 AM27.0 °F8.1 °F45 %30.14 in10.0 miNNW (340°)10.4 mphClear
9:35 AM29.3 °F7.7 °F40 %30.13 in10.0 miNorth (360°)9.2 mphClear
9:55 AM31.1 °F7.9 °F38 %30.13 in10.0 miNW (320°)5.8 mphClear
10:15 AM30.6 °F8.4 °F39 %30.11 in10.0 miNNW (340°)9.2 mphClear
10:35 AM32.2 °F8.4 °F37 %30.10 in10.0 miNNW (340°)11.5 mph16.1 mphClear
10:55 AM33.6 °F9.0 °F36 %30.09 in10.0 miNorth (350°)10.4 mphClear
11:15 AM34.0 °F9.1 °F36 %30.09 in10.0 miNNW (340°)5.8 mphClear
11:35 AM35.1 °F9.7 °F35 %30.07 in10.0 miWSW (250°)9.2 mphClear
11:55 AM36.7 °F11.1 °F35 %30.07 in10.0 miNW (320°)9.2 mphClear
12:15 PM38.5 °F11.3 °F33 %30.07 in10.0 miWSW (240°)16.1 mph19.6 mphClear
12:35 PM39.2 °F11.5 °F32 %30.07 in10.0 miSSW (210°)11.5 mph23.0 mphClear
12:55 PM39.0 °F12.6 °F34 %30.07 in10.0 miSSW (200°)12.7 mph21.9 mphClear
1:15 PM41.0 °F12.7 °F32 %30.06 in10.0 miSW (230°)13.8 mph24.2 mphClear
1:35 PM41.0 °F12.7 °F32 %30.06 in10.0 miWSW (250°)15.0 mph23.0 mphClear
1:55 PM40.6 °F13.5 °F33 %30.05 in10.0 miWest (260°)18.4 mph25.3 mphClear
2:15 PM40.5 °F12.4 °F32 %30.05 in10.0 miWest (260°)19.6 mphClear
2:35 PM42.3 °F13.6 °F31 %30.04 in10.0 miSW (220°)12.7 mph21.9 mphClear
2:55 PM41.4 °F12.2 °F30 %30.04 in10.0 miSSW (200°)16.1 mph20.7 mphClear
3:15 PM42.4 °F12.6 °F30 %30.04 in10.0 miSSW (210°)11.5 mph17.3 mphClear
3:35 PM41.9 °F12.0 °F30 %30.06 in10.0 miSSW (210°)10.4 mph19.6 mphClear
3:55 PM40.3 °F11.5 °F31 %30.07 in10.0 miWest (260°)18.4 mph25.3 mphClear
4:15 PM39.2 °F11.7 °F32 %30.07 in10.0 miWest (260°)15.0 mph26.5 mphClear
4:35 PM38.1 °F11.7 °F34 %30.07 in10.0 miWest (260°)19.6 mph27.6 mphClear
4:55 PM36.5 °F12.4 °F37 %30.07 in10.0 miWest (260°)15.0 mph24.2 mphClear
5:15 PM35.2 °F12.6 °F39 %30.08 in10.0 miWSW (250°)10.4 mph17.3 mphClear
5:35 PM34.0 °F13.1 °F42 %30.09 in10.0 miWest (260°)10.4 mph13.8 mphClear
5:55 PM33.4 °F13.1 °F43 %30.09 in7.0 miWSW (250°)12.7 mphClear
6:15 PM32.7 °F13.3 °F45 %30.10 in10.0 miSW (230°)8.1 mphClear
6:35 PM32.0 °F13.3 °F46 %30.11 in10.0 miWest (260°)10.4 mphClear
6:55 PM31.3 °F13.8 °F49 %30.11 in10.0 miWSW (240°)6.9 mphClear
7:15 PM30.0 °F13.6 °F51 %30.12 in10.0 miSW (230°)9.2 mphClear
7:35 PM31.8 °F13.5 °F47 %30.13 in10.0 miSW (230°)8.1 mphClear
7:55 PM30.6 °F13.6 °F50 %30.13 in10.0 miWest (280°)6.9 mphClear
8:15 PM30.9 °F13.1 °F48 %30.13 in10.0 miWSW (240°)6.9 mphClear
8:35 PM30.9 °F12.7 °F47 %30.13 in10.0 miWSW (250°)4.6 mphClear
8:55 PM29.8 °F12.9 °F49 %30.13 in10.0 miWest (260°)6.9 mphClear
9:15 PM30.0 °F13.1 °F49 %30.12 in10.0 miWSW (240°)10.4 mph16.1 mphClear
9:35 PM29.1 °F13.1 °F51 %30.12 in10.0 miWest (260°)10.4 mphClear
9:55 PM28.9 °F12.6 °F50 %30.12 in10.0 miWest (270°)5.8 mph17.3 mphClear
10:15 PM25.9 °F12.2 °F56 %30.12 in10.0 miWest (280°)5.8 mphClear
10:35 PM24.6 °F11.5 °F57 %30.12 in10.0 miWNW (300°)3.5 mphClear
10:55 PM26.1 °F10.9 °F53 %30.12 in10.0 miNNW (330°)4.6 mphClear
11:15 PM27.1 °F11.1 °F51 %30.12 in10.0 miNNW (330°)5.8 mphClear
11:35 PM27.5 °F10.8 °F49 %30.12 in10.0 miNW (310°)4.6 mphClear
11:55 PM26.8 °F10.8 °F51 %30.12 in10.0 miWest (270°)5.8 mphClear
Hourly data recorded from KANK, located miles away from Poncha Springs, Colorado







STORIES FROM OUR PARTNERS